Flag for Austria Weather past 2 weeks in Waidhofen an der Ybbs, Lower Austria, Austria

Now
62 °F

Mild.


Feels Like: 62 °F
Forecast: 58 / 90 °F
Wind: 1 mph from East

Location: Amstetten

Current Time: Aug 30, 2015 at 6:42:17 AM

Latest Report: Aug 30, 2015 at 5:00 AM


Visibility: N/A

Pressure: 30.08 "Hg

Humidity: 92%

Dew point: 60 °F

Location of Waidhofen an der YbbsLocation

Historic Weather in Waidhofen an der Ybbs — Graph

°F

Waidhofen an der Ybbs temperature yesterday

Maximum temperature yesterday: 89 °F (at 5:00 PM)
Minimum temperature yesterday: 59 °F (at 7:00 AM)
Average temperature yesterday: 76 °F

Past Weeks' High & Low Weather Summary

 TemperatureHumidityPressure
High91 °F (Aug 28, 4:00 PM)100% (Aug 22, 6:00 AM)30.26 "Hg (Aug 22, 6:00 AM)
Low47 °F (Aug 26, 6:00 AM)29% (Aug 26, 3:00 PM)29.67 "Hg (Aug 15, 7:00 PM)
Average68 °F69%29.99 "Hg
* Reported Aug 15 5:00 AM — Aug 30 5:00 AM, Waidhofen an der Ybbs, Weather by CustomWeather, © 2015

Note: Actual official high and low records may vary slightly from our data, if they occured in-between our weather recording intervals... More about our weather records

Advertising

Waidhofen an der Ybbs weather history for previous 24 hours

 ConditionsComfort  
Time TempWeatherWind HumidityBarometerVisibility
5:00 AM
Sun, Aug 30
62 °FMild.1 mph92%30.08 "HgN/A
4:00 AM68 °FMild.2 mph80%30.08 "HgN/A
3:00 AM69 °FMild.3 mph77%30.08 "HgN/A
2:00 AM71 °FMild.2 mph76%30.09 "HgN/A
1:00 AM70 °FMild.1 mph77%30.10 "HgN/A
12:00 AM73 °FMild.1 mph71%30.10 "HgN/A
11:00 PM
Sat, Aug 29
77 °FWarm.2 mph64%30.09 "HgN/A
10:00 PM79 °FWarm.2 mph60%30.09 "HgN/A
9:00 PM81 °FWarm.2 mph56%30.09 "HgN/A
8:00 PM85 °FWarm.3 mph51%30.07 "HgN/A
7:00 PM87 °FWarm.5 mph46%30.07 "HgN/A
6:00 PM89 °FHot.6 mph45%30.08 "HgN/A
5:00 PM89 °FHot.5 mph45%30.09 "HgN/A
4:00 PM89 °FHot.5 mph42%30.10 "HgN/A
11:00 AM80 °FWarm.3 mph56%30.19 "HgN/A
10:00 AM74 °FMild.No wind60%30.22 "HgN/A
9:00 AM69 °FMild.1 mph73%30.22 "HgN/A
7:00 AM59 °FCool.1 mph93%30.22 "HgN/A
Weather by CustomWeather, © 2015

See weather overviewHow to use our weather pages